Regional Weather Roundup
Issued by NWS

Home | Current Version | Previous Version | Text Only | Print | Product List | Glossary On
Versions: 1 2 3 4 5 6 7 8 9 10 11 12 13 14 15 16 17 18 19 20 21 22 23 24 25 26 27 28 29 30 31 32 33 34 35 36 37 38 39 40 41 42 43 44 45 46 47 48 49 50
000
ASUS43 KMPX 042310
RWRMN
WEATHER ROUNDUP FOR MINNESOTA
NATIONAL WEATHER SERVICE TWIN CITIES/CHANHASSEN MN
500 PM CST SUN DEC 04 2016


NOTE: "FAIR" INDICATES FEW OR NO CLOUDS BELOW 12,000 FEET WITH NO
SIGNIFICANT WEATHER AND/OR OBSTRUCTIONS TO VISIBILITY. N/A MEANS
CURRENT SKY AND/OR WEATHER CONDITIONS ARE NOT AVAILABLE.

MNZ060>063-068>070-050000-
   Twin Cities Metro

CITY           SKY/WX    TMP DP  RH WIND       PRES   REMARKS
TWIN CITIES    CLOUDY    37  32  82 SW9       29.75F
ST PAUL        CLOUDY    36  34  92 S8        29.76F
CRYSTAL        CLOUDY    37  31  78 SW7       29.74R
BLAINE         CLOUDY    37  36  93 SW9       29.74S
LAKEVILLE      PTCLDY    34  34 100 CALM      29.76S
EDEN PRAIRIE   CLOUDY    37  33  85 S8        29.74F
SOUTH ST PAUL  CLOUDY    36  34  93 S7        29.76S
LAKE ELMO      CLOUDY    34  34 100 S7        29.76S WCI  28
$$
MNZ001>005-007-008-013>017-022>024-027-028-050000-
   Northwest Minnesota

CITY           SKY/WX    TMP DP  RH WIND       PRES   REMARKS
BEMIDJI        CLOUDY    32  31  96 SW9       29.63R WCI  24
HALLOCK        CLOUDY    32  30  93 W7        29.61R FOG     WCI  26
ROSEAU         CLOUDY    30  27  86 SW7       29.60S WCI  23
WARROAD        LGT RAIN  30  28  93 SW8       29.60S WCI  23
THIEF RVR FALL FLURRIES  30  28  92 MISG        N/A
CROOKSTON      CLOUDY    30  30 100 W7        29.66S WCI  23
FOSSTON        CLOUDY    28  27  93 SW7       29.65S FOG     WCI  21
DETROIT LAKES  CLOUDY    32  30  93 W7        29.68R WCI  26
MOORHEAD       CLOUDY    34  28  80 W14       29.70R WCI  24
PARK RAPIDS    CLOUDY    32  27  81 W8        29.65R WCI  25
$$
MNZ006-009>011-018-025>026-050000-
   North Central Minnesota

CITY           SKY/WX    TMP DP  RH WIND       PRES   REMARKS
BAUDETTE       LGT SNOW  32  30  92 SE7       29.60F FOG     WCI  26
FLAG ISLAND    LGT SNOW  32  30  93 SE16      29.59S WCI  21
INTL FALLS     CLOUDY    31  28  89 SE8       29.64F WCI  23
WASKISH        LGT SNOW  32  30  93 CALM      29.62S
BIG FORK       LGT SNOW  32  30  93 SE3       29.64S
LONGVILLE      FLURRIES  32  30  93 SW3       29.64S
GRAND RAPIDS   MIX PCPN  31  30  96 SE7       29.66F WCI  24
CRANE LAKE     LGT SNOW  30  28  93 CALM      29.69F
COOK           LGT SNOW  30  28  93 CALM      29.67F
$$
MNZ012-019>021-037-050000-
   Northeast Minnesota

CITY           SKY/WX    TMP DP  RH WIND       PRES   REMARKS
DULUTH         LGT SNOW  31  30  96 S7        29.68S FOG     WCI  24
ELY            LGT SNOW  30  28  93 SE5       29.68F WCI  25
HIBBING        LGT SNOW  29  28  96 SE6       29.66F FOG     WCI  23
EVELETH        LGT SNOW  32  31  96 SE3       29.68F
DULUTH HARBOR  MIX PCPN  34  32  93 S6        29.73F WCI  29
TWO HARBORS    LGT SNOW  34  28  80 S3        29.69F
SILVER BAY     MIX PCPN  34  32  93 S3        29.70F
GRAND MARAIS     N/A     35  34  96 SE13      29.75F WCI  26
G MARAIS ARPRT LGT SNOW  28  25  86 SE6       29.70F VSB 3/4 WCI  22
$$
MNZ029>031-032-039>041-046>048-054>057-064-050000-
   West Central Minnesota

CITY           SKY/WX    TMP DP  RH WIND       PRES   REMARKS
FERGUS FALLS   CLOUDY    34  34 100 W3        29.75R
WHEATON        CLOUDY   N/A N/A N/A SW7       29.75S
MORRIS         CLOUDY    36  32  87 SW7       29.73S
ALEXANDRIA     CLOUDY    34  32  92 W13       29.72R WCI  25
ELBOW LAKE     CLOUDY    33  31  92 SW10      29.72S WCI  25
WADENA         MIX PCPN  30  28  93 W10       29.67S WCI  21
GLENWOOD       CLOUDY    34  30  86 W9        29.73S WCI  26
APPLETON       CLOUDY    36  30  80 W7        29.76R
BENSON         CLOUDY    36  30  80 NW10      29.76R
ORTONVILLE     CLOUDY    36  28  75 CALM      29.75S
MADISON        CLOUDY    37  34  87 NW5       29.77S
WILLMAR        CLOUDY    37  34  87 W8        29.76S
$$
MNZ033>034-036-042>043-049>051-058-059-050000-
   Central Minnesota

CITY           SKY/WX    TMP DP  RH WIND       PRES   REMARKS
ST CLOUD       CLOUDY    33  33 100 SW3       29.72S
PAYNESVILLE    CLOUDY    34  34 100 W8        29.75R WCI  27
AITKIN         MIX PCPN  36  30  80 SW6       29.65S
PINE RIVER     CLOUDY    34  34 100 SW5       29.69S WCI  30
BRAINERD       CLOUDY    33  32  96 SW12      29.68R FOG     WCI  24
STAPLES        CLOUDY    30  30 100 W13       29.68S WCI  20
LONG PRAIRIE   CLOUDY    32  32 100 SW14      29.71R WCI  22
LITTLE FALLS   CLOUDY    34  32  93 W8        29.70S WCI  27
LITCHFIELD     MOCLDY    37  34  87 W8        29.75R
BUFFALO        RAIN      36  34  90 SW6       29.74S
MAPLE LAKE     MOCLDY    37  35  94 W7        29.74R
$$
MNZ037-044-045-052-053-050000-
   East Central Minnesota

CITY           SKY/WX    TMP DP  RH WIND       PRES   REMARKS
PRINCETON      DRIZZLE   36  34  93 S3        29.72S
MORA           CLOUDY    34  32  93 SW5       29.72S WCI  30
CAMBRIDGE      MIX PCPN  36  34  93 S5        29.71R
RUSH CITY      CLOUDY    34  32  93 S5        29.72S WCI  30
MOOSE LAKE     LGT SNOW  32  32 100 S6        29.67F WCI  26
HINCKLEY       MIX PCPN  32  32 100 S7        29.71S WCI  26
CLOQUET        LGT SNOW  30  30 100 SE3       29.68F
MCGREGOR       CLOUDY    32  32 100 S5        29.67F WCI  27
$$
MNZ071>073-080-081-089-090-097-098-050000-
   Southwest Minnesota

CITY           SKY/WX    TMP DP  RH WIND       PRES   REMARKS
MONTEVIDEO     CLOUDY    37  32  81 NW8       29.78S
GRANITE FALLS  PTCLDY    37  32  82 W10       29.78S
CANBY          CLEAR     37  31  81 CALM      29.78R
MARSHALL       CLEAR     36  32  85 W12       29.77S
REDWOOD FALLS  CLEAR     38  30  73 W13       29.77R
OLIVIA         CLEAR     36  32  87 W8        29.76R
PIPESTONE      CLEAR     37  34  87 W7        29.78S
WINDOM         CLEAR     37  32  81 CALM      29.79R
WORTHINGTON    CLEAR     37  32  82 SW12      29.80R
JACKSON        CLEAR     36  32  87 W8        29.80R
TRACY          CLEAR     38  33  82 W9        29.77F
SLAYTON        CLEAR     36  32  87 W7        29.79S
$$
MNZ065>067-074>077-082>085-091>093-050000-
   South Central Minnesota

CITY           SKY/WX    TMP DP  RH WIND       PRES   REMARKS
MANKATO        MOCLDY    38  35  89 SW9       29.78R
NEW ULM        CLOUDY    39  34  81 W10       29.78R
ST JAMES       CLEAR     37  32  81 W8        29.80R
FAIRMONT       CLEAR     40  33  76 W8        29.81R
GLENCOE        CLOUDY    38  35  89 W7        29.76R
FARIBAULT      MOCLDY    36  34  93 S5        29.78R
OWATONNA       PTCLDY    36  32  87 S8        29.78S
WASECA         PTCLDY    34  32  93 S8        29.79S WCI  27
ALBERT LEA     CLOUDY    39  37  93 SW7       29.80R
$$
MNZ078>079-086>088-094>096-050000-
   Southeast Minnesota

CITY           SKY/WX    TMP DP  RH WIND       PRES   REMARKS
ROCHESTER      CLOUDY    33  32  96 S10       29.80S WCI  25
RED WING       CLOUDY    36  32  87 SW7       29.78R
STANTON        CLOUDY    36  33  87 S5        29.76S
DODGE CENTER   CLOUDY    34  32  93 S10       29.78S WCI  26
WINONA         CLOUDY    36  32  87 W3        29.83R
PRESTON        CLOUDY    32  30  92 SW7       29.82S WCI  26
$$
ABBREVIATIONS USED IN REMARKS
   TC - TEMPERATURES IN CELSIUS
  WCI - WIND CHILL INDEX
   HX - HEAT INDEX
  VSB - VISIBILITY
$$




USA.gov is the U.S. government's official web portal to all federal, state and local government web resources and services.